Weather History for Skagway, AK

Change the Weather History Date:

Saturday, November 17, 2012

  Actual Average Record
Temperature  
Mean Temperature 23 °F -  
Max Temperature 25 °F 36 °F 48 °F (2005)
Min Temperature 21 °F 29 °F 4 °F (1969)
Degree Days  
Heating Degree Days 42    
Moisture  
Dew Point 4 °F    
Average Humidity 44    
Maximum Humidity 48    
Minimum Humidity 37    
Precipitation  
Precipitation 0.00 in - - ()
Sea Level Pressure  
Sea Level Pressure 29.49 in    
Wind  
Wind Speed 16 mph (NNE)    
Max Wind Speed 22 mph    
Max Gust Speed 38 mph    
Visibility 10 miles    
Events      
Averages and records for this station are not official NWS values.
T = Trace of Precipitation, MM = Missing Value Source: NWS Daily Summary

Daily Weather History Graph

Daily Weather History Graph

Search for Another Location

Airport:

Trip Planner

Search our weather history database for the weather conditions in past years. The results will help you decide how hot, cold, wet, or windy it might be!

Date:

Astronomy

Nov. 17, 2012 Rise Set
Actual Time 8:02 AM AKST 3:29 PM AKST
Civil Twilight 7:13 AM AKST 4:18 PM AKST
Nautical Twilight 6:22 AM AKST 5:09 PM AKST
Astronomical Twilight 5:33 AM AKST 5:58 PM AKST
Moon 11:51 AM AKST (11/17) 7:54 PM AKST (11/17)
Length of Visible Light 9h 04m
Length of Day
7h 27m
Waxing Crescent, 21% of the Moon is Illuminated
Nov 17
Waxing Crescent
Nov 20
First Quarter
Nov 28
Full
Dec 6
Last Quarter
Dec 12
New

Hourly Weather History & Observations

Time (AKST) Temp. Windchill Dew Point Humidity Pressure Visibility Wind Dir Wind Speed Gust Speed Precip Events Conditions
12:53 AM 25.0 °F 13.1 °F 7.0 °F 46% 29.66 in 10.0 mi NNE 13.8 mph 21.9 mph N/A   Overcast
1:53 AM 24.1 °F 12.5 °F 7.0 °F 48% 29.65 in 10.0 mi NNE 12.7 mph 23.0 mph N/A   Overcast
3:53 AM 23.0 °F 9.2 °F 5.0 °F 46% 29.63 in 10.0 mi NNE 17.3 mph 27.6 mph N/A   Overcast
4:53 AM 23.0 °F 8.3 °F 6.1 °F 48% 29.62 in 10.0 mi NNE 19.6 mph 28.8 mph N/A   Overcast
5:53 AM 23.0 °F 10.6 °F 6.1 °F 48% 29.61 in 10.0 mi NNE 13.8 mph 23.0 mph 0.00 in   Overcast
6:53 AM 21.9 °F 7.8 °F 3.9 °F 46% 29.59 in 10.0 mi NNE 17.3 mph 26.5 mph N/A   Overcast
7:53 AM 21.9 °F 6.9 °F 3.0 °F 44% 29.57 in 10.0 mi NNE 19.6 mph 38.0 mph N/A   Clear
8:53 AM 21.0 °F 6.2 °F 3.0 °F 46% 29.56 in 10.0 mi NNE 18.4 mph 28.8 mph N/A   Clear
9:53 AM 21.9 °F 6.9 °F 3.0 °F 44% 29.54 in 10.0 mi NNE 19.6 mph 27.6 mph N/A   Clear
10:53 AM 21.9 °F 7.8 °F 3.0 °F 44% 29.52 in 10.0 mi NNE 17.3 mph 27.6 mph N/A   Partly Cloudy
11:53 AM 23.0 °F 7.6 °F 3.0 °F 42% 29.49 in 10.0 mi NNE 21.9 mph 26.5 mph N/A   Overcast
12:53 PM 24.1 °F 10.6 °F 3.0 °F 40% 29.47 in 10.0 mi NNE 17.3 mph 26.5 mph N/A   Clear
1:53 PM 23.0 °F 8.7 °F 3.0 °F 42% 29.44 in 10.0 mi NNE 18.4 mph 34.5 mph N/A   Mostly Cloudy
2:53 PM 23.0 °F 9.6 °F 3.9 °F 44% 29.42 in 10.0 mi NNE 16.1 mph 29.9 mph N/A   Overcast
3:53 PM 23.0 °F 10.6 °F 3.0 °F 42% 29.41 in 10.0 mi NNE 13.8 mph 23.0 mph N/A   Overcast
4:53 PM 23.0 °F 8.7 °F 3.9 °F 44% 29.40 in 10.0 mi North 18.4 mph 26.5 mph N/A   Overcast
5:53 PM 23.0 °F 8.7 °F 3.9 °F 44% 29.39 in 10.0 mi NNE 18.4 mph 27.6 mph N/A   Overcast
6:53 PM 23.0 °F 9.2 °F 3.0 °F 42% 29.37 in 10.0 mi NNE 17.3 mph 25.3 mph N/A   Overcast
7:53 PM 23.0 °F 10.1 °F 3.0 °F 42% 29.37 in 10.0 mi NNE 15.0 mph 27.6 mph N/A   Overcast
8:53 PM 23.0 °F 9.6 °F 1.9 °F 40% 29.37 in 10.0 mi NE 16.1 mph 25.3 mph N/A   Overcast
9:53 PM 21.9 °F 8.2 °F 1.9 °F 42% 29.38 in 10.0 mi NNE 16.1 mph 23.0 mph N/A   Overcast
10:53 PM 21.9 °F 6.5 °F 1.0 °F 40% 29.39 in 10.0 mi NNE 20.7 mph 27.6 mph N/A   Overcast
11:53 PM 21.9 °F 7.8 °F -0.9 °F 37% 29.41 in 10.0 mi NNE 17.3 mph 29.9 mph N/A   Overcast